Weather History for Ravenna, OH

Change the Weather History Date:

Thursday, January 24, 2013

  Actual Average (KCAK) Record (KCAK)
Temperature  
Mean Temperature 12 °F 26 °F  
Max Temperature 20 °F 33 °F 65 °F (1909)
Min Temperature 5 °F 19 °F -21 °F (1963)
Degree Days  
Heating Degree Days 52 39  
Month to date heating degree days 934  
Since 1 July heating degree days 3264  
Cooling Degree Days 0 0  
Month to date cooling degree days 0  
Year to date cooling degree days 0  
Moisture  
Dew Point 5 °F    
Average Humidity 71    
Maximum Humidity 88    
Minimum Humidity 40    
Precipitation  
Precipitation 0.00 in 0.09 in 0.71 in (1953)
Month to date precipitation 2.05  
Year to date precipitation 2.05  
Snow  
Snow 0.00 in 0.40 in - ()
Month to date snowfall 9.6  
Since 1 July snowfall 23.2  
Snow Depth -    
Sea Level Pressure  
Sea Level Pressure 30.34 in    
Wind  
Wind Speed 4 mph (NW)    
Max Wind Speed 12 mph    
Max Gust Speed 21 mph    
Visibility 9 miles    
Events Snow    
T = Trace of Precipitation, MM = Missing Value Source: NWS Daily Summary

Daily Weather History Graph

Daily Weather History Graph

Search for Another Location

Airport:

Trip Planner

Search our weather history database for the weather conditions in past years. The results will help you decide how hot, cold, wet, or windy it might be!

Date:

Astronomy

Jan. 24, 2013 Rise Set
Actual Time 7:42 AM EST 5:31 PM EST
Civil Twilight 7:13 AM EST 6:01 PM EST
Nautical Twilight 6:39 AM EST 6:35 PM EST
Astronomical Twilight 6:06 AM EST 7:07 PM EST
Moon 3:32 PM EST (1/24) 5:39 AM EST (1/24)
Length of Visible Light 10h 48m
Length of Day
9h 49m
Waxing Gibbous, 94% of the Moon is Illuminated
Jan 24
Waxing Gibbous
Jan 26
Full
Feb 3
Last Quarter
Feb 10
New
Feb 17
First Quarter

Hourly Weather History & Observations

Time (EST) Temp. Windchill Dew Point Humidity Pressure Visibility Wind Dir Wind Speed Gust Speed Precip Events Conditions
12:15 AM 12.0 °F - 9.1 °F 88% 30.03 in 4.0 mi Calm Calm - N/A Snow Light Snow
12:35 AM 11.8 °F - 9.0 °F 88% 30.02 in 5.0 mi Calm Calm - N/A Snow Light Snow
12:55 AM 12.0 °F - 9.1 °F 88% 30.02 in 10.0 mi Calm Calm - N/A   Overcast
1:15 AM 12.4 °F - 9.5 °F 88% 30.02 in 10.0 mi Calm Calm - N/A Snow Light Snow
1:35 AM 12.4 °F 6.3 °F 9.5 °F 88% 30.03 in 10.0 mi WSW 3.5 mph - N/A   Overcast
1:55 AM 12.6 °F 6.5 °F 9.5 °F 88% 30.03 in 10.0 mi WSW 3.5 mph - N/A   Overcast
2:15 AM 12.7 °F 3.6 °F 9.5 °F 87% 30.04 in 10.0 mi West 5.8 mph - N/A   Overcast
2:35 AM 12.6 °F 2.2 °F 9.1 °F 86% 30.05 in 10.0 mi West 6.9 mph - N/A   Mostly Cloudy
2:55 AM 12.0 °F 1.5 °F 8.8 °F 87% 30.06 in 10.0 mi West 6.9 mph - N/A   Scattered Clouds
3:15 AM 11.7 °F 2.3 °F 8.4 °F 87% 30.07 in 10.0 mi West 5.8 mph - N/A   Clear
3:35 AM 12.2 °F 1.7 °F 9.3 °F 88% 30.08 in 4.0 mi West 6.9 mph - N/A Snow Light Snow
3:56 AM 12.9 °F 1.6 °F 9.5 °F 86% 30.09 in 1.8 mi West 8.1 mph - N/A Snow Light Snow
4:15 AM 13.1 °F 5.4 °F 10.0 °F 88% 30.10 in 3.0 mi WNW 4.6 mph - N/A Snow Light Snow
4:35 AM 13.5 °F 5.8 °F 10.4 °F 88% 30.12 in 2.0 mi WNW 4.6 mph - N/A Snow Light Snow
4:55 AM 13.6 °F 7.7 °F 10.4 °F 87% 30.13 in 2.0 mi WNW 3.5 mph - N/A Snow Light Snow
5:15 AM 13.3 °F 7.3 °F 10.4 °F 88% 30.14 in 3.0 mi WNW 3.5 mph - N/A Snow Light Snow
5:35 AM 14.2 °F 5.3 °F 10.8 °F 86% 30.16 in 3.0 mi NW 5.8 mph - N/A Snow Light Snow
5:55 AM 14.9 °F 5.0 °F 11.3 °F 86% 30.18 in 1.5 mi NNW 6.9 mph - N/A Snow Light Snow
6:15 AM 14.0 °F 5.1 °F 8.8 °F 80% 30.20 in 10.0 mi NW 5.8 mph - N/A   Mostly Cloudy
6:35 AM 13.6 °F 4.6 °F 7.0 °F 75% 30.22 in 10.0 mi NW 5.8 mph - N/A   Scattered Clouds
6:56 AM 13.6 °F 2.5 °F 6.4 °F 73% 30.23 in 10.0 mi NW 8.1 mph - N/A   Scattered Clouds
7:15 AM 12.7 °F 2.4 °F 5.9 °F 74% 30.25 in 10.0 mi WNW 6.9 mph - N/A   Clear
7:35 AM 12.2 °F 4.3 °F 5.7 °F 75% 30.26 in 10.0 mi WNW 4.6 mph - N/A   Clear
7:55 AM 11.5 °F 2.1 °F 5.5 °F 77% 30.27 in 10.0 mi WNW 5.8 mph - N/A   Scattered Clouds
8:15 AM 11.3 °F 3.3 °F 5.9 °F 79% 30.29 in 7.0 mi WNW 4.6 mph - N/A   Mostly Cloudy
8:35 AM 13.3 °F 7.3 °F 8.6 °F 82% 30.30 in 1.8 mi WNW 3.5 mph - N/A Snow Light Snow
8:55 AM 14.4 °F 6.9 °F 9.5 °F 81% 30.31 in 3.0 mi WNW 4.6 mph - N/A Snow Light Snow
9:15 AM 15.1 °F 6.4 °F 10.6 °F 82% 30.33 in 10.0 mi West 5.8 mph - N/A Snow Light Snow
9:35 AM 16.5 °F 9.4 °F 10.8 °F 78% 30.34 in 10.0 mi West 4.6 mph - N/A   Scattered Clouds
9:56 AM 18.1 °F 10.0 °F 11.8 °F 76% 30.36 in 5.0 mi NW 5.8 mph - N/A Snow Light Snow
10:15 AM 18.0 °F 7.7 °F 12.6 °F 79% 30.38 in 2.0 mi North 8.1 mph - N/A Snow Light Snow
10:35 AM 18.3 °F 5.9 °F 8.6 °F 66% 30.39 in 10.0 mi NNW 11.5 mph 20.7 mph N/A   Overcast
10:56 AM 17.6 °F 5.7 °F 4.8 °F 57% 30.41 in 10.0 mi North 10.4 mph 18.4 mph N/A   Mostly Cloudy
11:15 AM 19.6 °F 7.4 °F 2.1 °F 47% 30.43 in 10.0 mi NNW 11.5 mph 18.4 mph N/A   Clear
11:35 AM 19.8 °F 8.3 °F -0.6 °F 41% 30.44 in 10.0 mi North 10.4 mph - N/A   Clear
11:55 AM 20.1 °F 9.5 °F -0.9 °F 40% 30.44 in 10.0 mi North 9.2 mph - N/A   Clear
12:15 PM 19.2 °F 7.0 °F -1.1 °F 41% 30.44 in 10.0 mi North 11.5 mph 17.3 mph N/A   Scattered Clouds
12:35 PM 20.1 °F 8.8 °F -0.2 °F 41% 30.44 in 10.0 mi NNW 10.4 mph - N/A   Scattered Clouds
12:55 PM 20.3 °F 10.6 °F 0.7 °F 43% 30.44 in 10.0 mi NNW 8.1 mph - N/A   Scattered Clouds
1:15 PM 18.7 °F 6.3 °F -0.2 °F 44% 30.44 in 10.0 mi NNW 11.5 mph 20.7 mph N/A   Mostly Cloudy
1:35 PM 18.5 °F 7.5 °F 1.8 °F 48% 30.44 in 10.0 mi NW 9.2 mph - N/A   Mostly Cloudy
1:55 PM 19.2 °F 11.3 °F 2.3 °F 48% 30.44 in 10.0 mi NNW 5.8 mph - N/A   Mostly Cloudy
2:15 PM 17.6 °F 6.4 °F 2.8 °F 53% 30.45 in 10.0 mi NNW 9.2 mph - N/A   Mostly Cloudy
2:35 PM 17.6 °F 6.4 °F 0.9 °F 48% 30.46 in 10.0 mi NW 9.2 mph 16.1 mph N/A   Scattered Clouds
2:55 PM 19.6 °F 8.9 °F 3.7 °F 50% 30.47 in 10.0 mi NNW 9.2 mph - N/A   Mostly Cloudy
3:15 PM 19.4 °F 7.2 °F 2.5 °F 48% 30.47 in 10.0 mi NNW 11.5 mph - N/A   Scattered Clouds
3:35 PM 17.4 °F 6.2 °F 2.7 °F 52% 30.48 in 10.0 mi NW 9.2 mph - N/A   Scattered Clouds
3:55 PM 17.6 °F 6.4 °F 3.2 °F 53% 30.49 in 10.0 mi West 9.2 mph - N/A   Clear
4:15 PM 17.4 °F 6.2 °F 2.5 °F 52% 30.48 in 10.0 mi NNW 9.2 mph - N/A   Clear
4:35 PM 16.7 °F 8.3 °F 2.8 °F 55% 30.48 in 10.0 mi NNW 5.8 mph - N/A   Clear
4:55 PM 16.3 °F 6.7 °F 3.0 °F 56% 30.49 in 10.0 mi NNW 6.9 mph - N/A   Clear
5:15 PM 15.1 °F 7.7 °F 2.8 °F 58% 30.49 in 10.0 mi NNW 4.6 mph - N/A   Clear
5:35 PM 13.6 °F 6.0 °F 1.6 °F 59% 30.49 in 10.0 mi NW 4.6 mph - N/A   Clear
5:55 PM 13.5 °F 7.5 °F 1.9 °F 60% 30.49 in 10.0 mi NNW 3.5 mph - N/A   Clear
6:15 PM 13.6 °F - 2.5 °F 61% 30.51 in 10.0 mi Calm Calm - N/A   Clear
6:35 PM 12.4 °F - 1.9 °F 63% 30.51 in 10.0 mi Calm Calm - N/A   Clear
6:55 PM 9.5 °F - 1.8 °F 71% 30.51 in 10.0 mi Calm Calm - N/A   Clear
7:15 PM 9.7 °F - 1.9 °F 71% 30.51 in 10.0 mi Calm Calm - N/A   Clear
7:36 PM 8.4 °F - 2.1 °F 76% 30.51 in 10.0 mi Calm Calm - N/A   Clear
7:55 PM 8.1 °F - 1.6 °F 75% 30.51 in 10.0 mi Calm Calm - N/A   Clear
8:15 PM 7.0 °F - 1.6 °F 79% 30.50 in 10.0 mi Calm Calm - N/A   Clear
8:35 PM 5.7 °F - 1.0 °F 81% 30.49 in 10.0 mi Calm Calm - N/A   Clear
8:55 PM 6.3 °F - 1.8 °F 82% 30.49 in 10.0 mi Calm Calm - N/A   Clear
9:15 PM 5.4 °F - 0.9 °F 82% 30.48 in 10.0 mi Calm Calm - N/A   Unknown
9:36 PM 6.4 °F - 1.9 °F 82% 30.48 in 10.0 mi Calm Calm - N/A   Unknown
9:55 PM 6.4 °F - 1.8 °F 81% 30.48 in 10.0 mi Calm Calm - N/A   Clear
10:15 PM 6.8 °F - 2.3 °F 82% 30.49 in 10.0 mi Calm Calm - N/A   Clear
10:35 PM 7.9 °F - 3.6 °F 83% 30.48 in 10.0 mi Calm Calm - N/A   Clear
10:56 PM 8.2 °F - 3.4 °F 81% 30.48 in 10.0 mi Calm Calm - N/A   Clear
11:15 PM 9.5 °F - 4.3 °F 79% 30.48 in 10.0 mi Calm Calm - N/A   Clear
11:35 PM 10.2 °F - 4.3 °F 77% 30.47 in 10.0 mi Calm Calm - N/A   Clear
11:55 PM 9.5 °F - 4.1 °F 79% 30.46 in 10.0 mi Calm Calm - N/A   Clear